This is the latest recevied weather packets stored in our database for station/object JE6MIQ-13. If no packets are shown the sender has not sent any weather packets the latest 10 day(s).
| Time | Temp. | Humidity | Pressure | Rain* | Wind** | Luminosity | Snow |
|---|---|---|---|---|---|---|---|
| 1777864353 | 21.11° C | 25% | 1013.6 hPa | 0 mm | - | - | - |
| 1777863754 | 20.56° C | 25% | 1013.6 hPa | 0 mm | - | - | - |
| 1777863154 | 20.56° C | 25% | 1013.6 hPa | 0 mm | - | - | - |
| 1777862552 | 20.56° C | 25% | 1013.6 hPa | 0 mm | - | - | - |
| 1777861953 | 20.56° C | 25% | 1014 hPa | 0 mm | - | - | - |
| 1777861354 | 20.56° C | 25% | 1013.7 hPa | 0 mm | - | - | - |
| 1777860753 | 20.56° C | 25% | 1013.7 hPa | 0 mm | - | - | - |
| 1777860154 | 21.11° C | 25% | 1013.6 hPa | 0 mm | - | - | - |
| 1777859553 | 20.56° C | 25% | 1013.9 hPa | 0 mm | - | - | - |
| 1777858954 | 20° C | 25% | 1013.9 hPa | 0 mm | - | - | - |
| 1777858353 | 19.44° C | 25% | 1013.6 hPa | 0 mm | - | - | - |
| 1777857753 | 19.44° C | 25% | 1013.9 hPa | 0 mm | - | - | - |
| 1777857152 | 18.89° C | 25% | 1013.9 hPa | 0 mm | - | - | - |
| 1777856553 | 19.44° C | 25% | 1014.1 hPa | 0 mm | - | - | - |
| 1777855953 | 18.89° C | 25% | 1013.9 hPa | 0 mm | - | - | - |
| 1777855353 | 18.89° C | 25% | 1013.9 hPa | 0 mm | - | - | - |
| 1777854753 | 18.89° C | 25% | 1013.8 hPa | 0 mm | - | - | - |
| 1777854154 | 18.33° C | 25% | 1013.4 hPa | 0 mm | - | - | - |
| 1777853554 | 17.78° C | 25% | 1013.5 hPa | 0 mm | - | - | - |
| 1777852954 | 18.33° C | 25% | 1013.5 hPa | 0 mm | - | - | - |
| 1777852352 | 17.78° C | 25% | 1013.3 hPa | 0 mm | - | - | - |
| 1777851754 | 17.22° C | 25% | 1013.3 hPa | 0 mm | - | - | - |
| 1777851153 | 17.78° C | 25% | 1013 hPa | 0 mm | - | - | - |
| 1777850553 | 17.78° C | 25% | 1012.4 hPa | 0 mm | - | - | - |
| 1777849953 | 17.78° C | 25% | 1012.4 hPa | 0 mm | - | - | - |
* Rain latest hour (hover to see other rain measurements)
** Current wind speed in m/s (hover to see current wind gust speed)